Location: Unspecified
(0.0000°N, 0.0000°E)
Time: 15:23:36
(UTC+00:00)

STARLINK-36952 - Pass Details

Date: 04 March 2026
Orbit: 265 x 265 km, 53.2° (Epoch: 6 March)

Event Time Altitude Azimuth Distance (km) Brightness Sun altitude
Rises 19:01:18 0° 218° (SW) 1,833 6.0 -12.3°
Reaches altitude 10° 19:03:10 10° 222° (SW) 1,033 4.8 -12.8°
Maximum altitude 19:05:25 62° 303° (WNW) 292 1.4 -13.4°
Enters shadow 19:06:46 21° 21° (NNE) 654 2.8 -13.7°
